Track STARLINK-1757 now! 10-day predictions STARLINK-1757 is classified as:
1 46339U 20062Q 21023.00001157 -.00006535 00000-0 -51145-3 0 9997 2 46339 53.0963 115.2859 0005379 333.9162 185.1234 14.99088592 1768